Regional Weather Roundup
Issued by NWS Sioux Falls, SD

Home | Current Version | Previous Version | Graphics & Text | Print | Product List | Glossary On
Versions: 1 2 3 4 5 6 7 8 9 10 11 12 13 14 15 16 17 18 19 20 21 22 23 24 25 26 27 28 29 30 31 32 33 34 35 36 37 38 39 40 41 42 43 44 45 46 47 48 49 50
000
ASUS43 KFSD 030710
RWRFSD

WEATHER ROUNDUP FOR SE SOUTH DAKOTA/SW MINNESOTA/NW IOWA
NATIONAL WEATHER SERVICE SIOUX FALLS SD
200 AM CDT SUN MAY 03 2015

NOTE: "FAIR" INDICATES FEW OR NO CLOUDS BELOW 12,000 FEET WITH NO
SIGNIFICANT WEATHER AND OR OBSTRUCTIONS TO VISIBILITY.


SDZ038>040-050-052>070-030800-
SOUTHEAST SOUTH DAKOTA

CITY           SKY/WX    TMP DP  RH WIND       PRES   REMARKS
BROOKINGS      PTCLDY    61  54  77 S12       29.72R
CHAMBERLAIN    PTCLDY    64  47  53 NE5       29.67S
HURON          MOCLDY    68  55  63 S13       29.66F
MADISON        FAIR      59  59 100 S13       29.71R
MITCHELL       CLOUDY    63  55  75 SE10      29.65F
SIOUX FALLS    CLOUDY    62  54  74 S8        29.70S
WINNER         FAIR      64  37  36 VRB3      29.70R
YANKTON        CLOUDY    70  54  56 S16G24    29.68S
$$

MNZ071-072-080-081-089-090-097-098-030800-
SOUTHWEST MINNESOTA

CITY           SKY/WX    TMP DP  RH WIND       PRES   REMARKS
FAIRMONT       CLEAR     57  46  67 SE14      29.76F
JACKSON        PTCLDY    57  50  77 S13       29.76S
LUVERNE        MOCLDY    61  52  72 S10       29.72F
MARSHALL       PTCLDY    61  48  63 S14       29.70R
MONTEVIDEO     MOCLDY    64  54  68 N5        29.76R THUNDER
PIPESTONE      MOCLDY    59  52  77 S13       29.71F
REDWOOD FALLS  CLEAR     60  52  74 S14       29.73F
TRACY          CLEAR     60  52  75 S13G20    29.72R
WINDOM         PTCLDY    57  52  82 SE8       29.74S
WORTHINGTON    MOCLDY    57  48  72 S16       29.74S
$$

IAZ001>003-012>014-020>022-031-032-NEZ013-014-SDZ071-030800-
NORTHWEST IOWA

CITY           SKY/WX    TMP DP  RH WIND       PRES   REMARKS
CHEROKEE       CLOUDY    57  54  88 CALM      29.73F
DENISON        CLOUDY    64  55  72 SW10G16   29.72F
ESTHERVILLE    MOCLDY    57  52  83 S15       29.76S
LE MARS        CLOUDY    61  55  82 S8        29.72F
ORANGE CITY    CLOUDY    55  52  88 SE5       29.72F
SHELDON        CLOUDY    57  55  94 SE12      29.72S
SIOUX CITY     CLOUDY    63  53  70 E6        29.70F
SPENCER        CLOUDY    58  52  80 SE10      29.75F
STORM LAKE     CLOUDY    55  52  88 SE8       29.75F
$$

ABBREVIATIONS USED IN REMARKS
   TC - TEMPERATURE IN CELSIUS
  WCI - WIND CHILL INDEX
   HX - HEAT INDEX
  VSB - VISIBILITY



USA.gov is the U.S. government's official web portal to all federal, state and local government web resources and services.